FW5354 Weather Reports


Display with metric or nautical units.
time (UTC)temp
F
wind
direction
speed
MPH
gust
MPH
rain 1hr
in
rain 24hr
in
rain mn
in
humidity
%
barometer
mb
20260903104554 0 0.0 0.0 0.00 0.01 0.01 1010.9
20260903103037 0 0.0 0.0 0.00 0.01 0.01 1010.8
20260903100036 0 0.0 0.0 0.00 0.01 0.01 1010.8
20260903094545 0 0.0 0.0 0.00 0.01 0.01 1010.8
20260903093030 0 0.0 0.0 0.00 0.01 0.01 1010.8
20260903090023 0 0.0 0.0 0.00 0.01 0.01 1010.8
20260903084519 0 0.0 0.0 0.00 0.01 0.01 1010.7
20260903083015 0 0.0 0.0 0.00 0.01 0.01 1010.6
20260903080005 0 0.0 0.0 0.00 0.01 0.01 1010.5
20260903074557 0 0.0 0.0 0.00 0.01 0.01 1010.5
20260903073053 0 0.0 0.0 0.00 0.01 0.01 1010.5
20260903070046 0 0.0 0.0 0.00 0.01 0.01 1010.7
20260903064542 0 0.0 0.0 0.01 0.01 0.01 1010.9
20260903063037 0 0.0 0.0 0.01 0.01 0.01 1011.0
20260903060033 82 126 0.0 0.0 0.01 0.01 0.01 61 1011.4
20260903054532 83 126 0.0 0.0 0.00 0.00 0.00 62 1011.6
20260903053028 83 126 0.0 0.0 0.00 0.00 0.00 65 1011.8
20260903050025 85 126 0.0 0.0 0.00 0.00 0.00 71 1012.2
20260903044533 85 126 0.0 0.0 0.00 0.00 0.00 71 1012.3
20260903043056 85 127 0.0 0.0 0.00 0.00 0.00 72 1012.3
20260903040022 85 130 0.0 0.0 0.00 0.00 0.00 72 1012.1
20260903034534 85 130 0.0 0.0 0.00 0.00 0.00 72 1011.7
20260903033019 85 119 0.0 0.0 0.00 0.00 0.00 72 1011.6
20260903030011 86 119 0.0 0.0 0.00 0.00 0.00 70 1011.1
20260903024508 86 119 0.0 0.0 0.00 0.00 0.00 70 1010.9
20260903023009 86 128 0.0 0.0 0.00 0.00 0.00 68 1010.6
20260903020012 85 143 0.0 0.0 0.00 0.00 0.00 70 1010.2
20260903014503 86 158 0.0 0.0 0.00 0.00 0.00 70 1010.2
20260903013109 87 125 0.0 0.0 0.00 0.00 0.00 69 1010.2
20260903010055 90 127 0.0 0.0 0.00 0.00 0.00 60 1009.9
20260903004554 90 115 0.0 0.0 0.00 0.00 0.00 58 1009.2
20260903003053 91 114 0.0 0.0 0.00 0.00 0.00 57 1008.9
20260903000048 92 113 0.0 0.0 0.00 0.00 0.00 57 1008.6
20260902234602 93 117 0.0 0.0 0.00 0.00 0.00 57 1008.4
20260902233043 94 115 0.0 0.0 0.00 0.00 0.00 56 1008.4
20260902230039 95 117 0.0 1.0 0.00 0.00 0.00 54 1008.3
20260902224551 95 117 0.0 0.0 0.00 0.00 0.00 54 1008.5
20260902223034 96 108 0.0 0.0 0.00 0.00 0.00 51 1008.3
20260902220030 98 124 0.0 0.0 0.00 0.00 0.00 48 1008.4
20260902214529 99 120 0.0 0.0 0.00 0.00 0.00 46 1008.5
20260902213033 99 119 0.0 0.0 0.00 0.00 0.00 46 1008.5
20260902210030 101 131 0.0 0.0 0.00 0.00 0.00 43 1008.9
20260902204526 101 120 0.0 0.0 0.00 0.00 0.00 43 1009.0
20260902203022 101 122 0.0 0.0 0.00 0.00 0.00 45 1009.2
20260902200026 100 122 0.0 0.0 0.00 0.00 0.00 43 1009.4
20260902194520 100 117 0.0 0.0 0.00 0.00 0.00 44 1009.9
20260902193012 99 122 0.0 0.0 0.00 0.00 0.00 44 1010.1
20260902190006 98 114 0.0 0.0 0.00 0.00 0.00 49 1010.5
20260902184502 97 118 0.0 0.0 0.00 0.00 0.00 50 1010.8
20260902183108 97 120 0.0 0.0 0.00 0.00 0.00 54 1011.1
20260902181658 95 124 0.0 0.0 0.00 0.00 0.00 55 1011.4
20260902180108 95 120 0.0 0.0 0.00 0.00 0.00 56 1011.6
20260902174557 94 120 0.0 0.0 0.00 0.00 0.00 59 1012.0
20260902173056 94 120 0.0 0.0 0.00 0.00 0.00 58 1012.2
20260902171657 96 120 0.0 1.0 0.00 0.00 0.00 58 1012.5
20260902170056 96 121 0.0 0.0 0.00 0.00 0.00 58 1012.6
20260902164550 94 118 0.0 0.0 0.00 0.00 0.00 62 1012.7
20260902163046 92 122 0.0 0.0 0.00 0.00 0.00 65 1012.9
20260902161644 91 125 0.0 0.0 0.00 0.00 0.00 69 1013.0
20260902160042 88 121 0.0 0.0 0.00 0.00 0.00 72 1013.0
20260902154541 86 141 0.0 0.0 0.00 0.00 0.00 72 1013.0
20260902153041 84 134 0.0 0.0 0.00 0.00 0.00 70 1013.0
20260902151643 84 135 0.0 0.0 0.00 0.00 0.00 67 1013.0
20260902150040 83 135 0.0 0.0 0.00 0.00 0.00 66 1013.0
20260902144542 83 135 0.0 0.0 0.00 0.00 0.00 63 1013.0
20260902143042 82 137 0.0 0.0 0.00 0.00 0.00 62 1013.0
20260902141637 82 137 0.0 0.0 0.00 0.00 0.00 59 1012.9
20260902140041 81 137 0.0 0.0 0.00 0.00 0.00 56 1012.9
20260902134538 81 138 0.0 0.0 0.00 0.00 0.00 54 1012.9
20260902133044 80 137 0.0 0.0 0.00 0.00 0.00 52 1012.8
20260902131637 80 138 0.0 0.0 0.00 0.00 0.00 50 1012.5
20260902130032 0 0.0 0.0 0.00 0.00 0.00 1012.6
20260902124527 0 0.0 0.0 0.00 0.00 0.00 1012.3
20260902123022 0 0.0 0.0 0.00 0.00 0.00 1011.9
20260902121621 0 0.0 0.0 0.00 0.00 0.00 1011.2
20260902120020 0 0.0 0.0 0.00 0.00 0.00 1011.2
20260902114521 0 0.0 0.0 0.00 0.00 0.00 1011.4
20260902113009 0 0.0 0.0 0.00 0.00 0.00 1011.3
20260902111604 0 0.0 0.0 0.00 0.00 0.00 1011.2
20260902110001 0 0.0 0.0 0.00 0.00 0.00 1011.3